Location: Il Ritiro
(43.4167°N, 13.1333°E)
Time: 16:14:49
(UTC+00:00)

SL-08 ROCKET BODY - Pass Details

Date: 05 July 2020
Orbit: 897 x 962 km, 82.9° (Epoch: 11 August)

Event Time Altitude Azimuth Distance (km) Brightness Sun altitude
Rises 19:53:14 0° 186° (S) 3,525 7.1 -9.7°
Reaches altitude 10° 19:55:39 10° 187° (S) 2,595 6.4 -10.0°
Maximum altitude 20:01:35 88° 277° (W) 931 4.4 -10.7°
Drops below altitude 10° 20:07:40 10° 8° (N) 2,658 7.4 -11.5°
Sets 20:10:11 0° 8° (N) 3,616 8.1 -11.8°
